Skip Page Navigation
NASA JPL Caltech
NASA Logo - Jet Propulsion Laboratory + View the NASA Portal
+ Center for Near-Earth Object Studies
JPL Home Earth Solar System Stars & Galaxies Technology
JPL Solar System Dynamics
BODIES ORBITS EPHEMERIDES TOOLS PHYSICAL DATA DISCOVERY FAQ SITE MAP
IMPORTANT: The SSD Announcement email list is now available. Major changes are coming in the near future, including possible hostname and/or URL changes. To be notified of such changes, subscribe to this email list.

Please visit this page for more details.


JPL Small-Body Database Browser
Search: [ help ]  
32679 (1070 T-1)
Classification: Main-belt Asteroid          SPK-ID: 2032679
Ephemeris | Orbit Diagram | Orbital Elements | Mission Design | Physical Parameters | Discovery Circumstances | Close-Approach Data ]

[ show orbit diagram ]
Orbital Elements at Epoch 2458600.5 (2019-Apr-27.0) TDB
Reference: JPL 18 (heliocentric ecliptic J2000)
 Element Value Uncertainty (1-sigma)   Units 
e .09877229692526181 4.0443e-08  
a 3.125115052619769 2.9487e-08 au
q 2.816440260716804 1.277e-07 au
i 22.27220760849892 1.0327e-05 deg
node 355.6757265554785 1.2271e-05 deg
peri 273.8271135331091 5.9797e-05 deg
M 185.2360196844188 6.0247e-05 deg
tp 2459580.095698836382
(2021-Dec-31.59569884)
0.00033872 TDB
period 2017.88979024333
5.52
2.8559e-05
7.819e-08
d
yr
n .1784041932025381 2.525e-09 deg/d
Q 3.433789844522734 3.2399e-08 au
  Orbit Determination Parameters
   # obs. used (total)      647  
   data-arc span      17474 days (47.84 yr)  
   first obs. used      1971-03-24  
   last obs. used      2019-01-25  
   planetary ephem.      DE431  
   SB-pert. ephem.      SB431-N16  
   condition code      0  
   norm. resid. RMS      .56582  
   source      ORB  
   producer      Otto Matic  
   solution date      2019-Jul-13 01:33:00  

Additional Information
 Earth MOID = 1.91077 au 
 Jupiter MOID = 1.86215 au 
 T_jup = 3.092 
[ show covariance matrix ]

Ephemeris | Orbit Diagram | Orbital Elements | Mission Design | Physical Parameters | Discovery Circumstances | Close-Approach Data ]

Physical Parameter Table
Parameter Symbol Value Units Sigma Reference Notes
absolute magnitude H 14.1   n/a MPO426114  
diameter diameter 8.114 km 0.151 urn:nasa:pds:neowise_diameters_albedos::2.0[mainbelt] (http://adsabs.harvard.edu/abs/2011ApJ...741...68M)  
geometric albedo albedo 0.081   0.011 urn:nasa:pds:neowise_diameters_albedos::2.0[mainbelt] (http://adsabs.harvard.edu/abs/2011ApJ...741...68M)  

32679 (1070 T-1)          Discovered 1971-Mar-25 by van Houten, C. J., van Houten-Groeneveld, I., Gehrels, T. at Palomar
Reference: 20011130/Numbers.arcLast Updated: 2004-04-19

[ show close-approach data ]
Alternate Designations
 1070 T-1 = 1995 QY12 = 2000 QD222 
Ephemeris | Orbit Diagram | Orbital Elements | Mission Design | Physical Parameters | Discovery Circumstances | Close-Approach Data ]
ABOUT SSD CREDITS/AWARDS PRIVACY/COPYRIGHT GLOSSARY LINKS
FirstGov
(server date/time)  
NASA Home Page
Site Manager:   Ryan S. Park
Webmaster  Alan B. Chamberlin